Inverness Airport

Airport
ICAO code: 
EGPE
IATA Code: 
INV
Summary
ICAO Region: 
EUR
Territory: 
Location: 
Dalcross, Scotland
Serving: 
Inverness
Elevation: 
30 ft
Coordinates: 
Aerial View: 
57° 32' 33" N, 4° 2' 51" W
Metar
Observation
EGPE 240720Z 21015KT 9999 -RA FEW020 BKN039 08/05 Q1025
Station
Inverness / Dalcross
Date/Time
2022-01-24 07:20:00
Wind direction
210°
Wind speed
15 kts
Lowest cloud amount
few clouds
Temperature
8°C
Dew point
5°C
Humidity
81%
QNH
1025 hPa
Weather condition
light rain

Description

Small regional airport serving Inverness and the Central Highlands of Scotland.

Climatology

Temperate Marine climate/Oceanic climate (Köppen climate classification Cfb). Moderately cool summer and comparatively warm winter with a temperature range of only 14°C. Prevailing south-westerly winds from the Atlantic Ocean.

Runways

Designator Length Width Surface Rops
12/30 700 18 ASP Yes/Yes
5/23 1887 46 ASP Yes/Yes
Airport map: 
Aerial View: 

SKYbrary Partners:

Safety knowledge contributed by: